Location: Holyhead Bay
(53.3667°N, 4.6667°W)
Time: 19:12:15
(UTC+00:00)

CZ-4 R/B - Pass Details

Date: 24 November 2020
Orbit: 533 x 597 km, 97.7° (Epoch: 16 January)

Event Time Altitude Azimuth Distance (km) Brightness Sun altitude
Exits shadow 19:14:17 29° 209° (SSW) 1,039 2.9 -26.7°
Maximum altitude 19:15:52 44° 261° (W) 781 2.4 -26.9°
Drops below altitude 10° 19:19:44 10° 335° (NNW) 1,868 4.3 -27.5°
Sets 19:21:59 0° 342° (NNW) 2,781 5.2 -27.8°
